Location: Fort Wayne
(41.1310°N, 85.1290°W)
Time: 18:58:08
(UTC-05:00)

Daily predictions for brighter satellites

Satellite Brightness Start Highest point End
(mag) Time Altitude Azimuth Time Altitude Azimuth Time Altitude Azimuth
CENTAUR R/B 4.2 18:39:00 10° NW 18:46:40 53° WSW 18:54:41 10° S
Resurs 01 Rocket 3.1 18:47:13 10° ESE 18:50:07 17° ENE 18:53:00 10° NNE
Cosmos 1190 Rocket 4.1 18:48:26 10° SSW 18:53:37 88° WNW 18:58:51 10° NNE
Thor Agena Rocket 4.2 18:50:12 10° N 18:55:10 58° WNW 19:00:06 10° SSW
COSMO-SKYMED 1 2.7 18:51:33 10° NNE 18:55:55 85° WNW 19:00:15 10° SSW
ALOS 3.2 18:54:00 10° SE 18:57:57 28° ENE 19:01:54 10° N
Cosmos 2181 Rocket 4.4 18:52:13 10° N 18:58:06 41° ENE 19:04:01 10° SE
Cosmos 2333 Rocket 4.1 18:59:06 10° NNE 19:01:20 12° NE 19:03:35 10° ENE
Spot 2 Rocket 4.5 18:58:21 10° ESE 19:02:26 26° ENE 19:06:34 10° N
SL-16 R/B 2.6 18:58:04 10° NNW 19:03:44 70° WSW 19:09:21 10° SSE
Okean 2 Rocket 4.3 19:01:03 10° SSW 19:05:21 48° W 19:09:39 10° N
FREGAT/IRIS 3.1 19:02:33 10° SE 19:05:27 38° ENE 19:08:21 10° N
Cosmos 1340 3.0 19:02:55 10° N 19:06:35 44° ENE 19:10:12 10° SSE
Cosmos 1709 Rocket 4.0 19:06:51 10° S 19:12:59 66° E 19:19:06 10° NNE
Helios 1B rocket 4.0 19:18:13 15° E 19:18:26 15° E 19:20:48 10° SE
FengYun 1-2 T 4.4 19:14:46 10° SE 19:19:59 47° ENE 19:25:15 10° N
Cosmos 2322 Rocket 3.2 19:14:42 10° NW 19:20:05 49° WSW 19:25:28 10° S
Meteor 1-28 Rocket 4.2 19:16:30 10° N 19:20:12 51° WNW 19:23:54 10° SSW
Cosmos 1954 Rocket 3.9 19:15:11 10° SSW 19:20:21 76° ESE 19:25:35 10° NNE
HJ-1C 3.8 19:19:26 10° SE 19:22:36 39° ENE 19:25:47 10° N
Tiangong 2 2.8 19:20:49 10° W 19:23:30 27° SSW 19:26:11 10° SSE
SJ-6B 2.7 19:19:57 10° SSE 19:23:57 74° ENE 19:27:53 10° N
Cosmos 2151 Rocket 4.1 19:20:00 10° SSW 19:24:27 65° W 19:28:59 10° N
Okean 1 Rocket 3.3 19:21:08 10° SSE 19:25:25 45° E 19:29:42 10° NNE
Genesis I 4.0 19:22:22 10° NNW 19:25:57 32° NE 19:28:05 19° E
FENGYUN 3A 3.7 19:22:30 10° SSE 19:27:46 56° ENE 19:33:05 10° N
TSX-5 3.7 19:25:01 10° SW 19:28:09 63° WNW 19:31:23 10° NNE
Meteor 1-19 Rocket 4.2 19:22:48 10° N 19:28:28 64° E 19:34:10 10° SSE
NOSS 8 (F) 4.5 19:27:19 10° SSW 19:30:47 61° ESE 19:33:49 13° NE
Gbstr 26 Del rocket 2.6 19:30:49 10° SW 19:34:37 67° SE 19:36:53 22° ENE
Cosmos 2322 3.6 19:30:45 10° NNW 19:36:31 77° ENE 19:42:12 10° SSE
Cosmos 1238 Rocket 2.0 19:34:44 10° N 19:37:44 89° W 19:40:41 10° S
GPS 2-04 Rocket1 4.2 19:41:29 10° SW 19:45:04 26° SSE 19:46:29 22° SE
CZ-2D R/B 3.7 19:43:32 24° ESE 19:45:14 38° ENE 19:48:48 10° N
Cosmos 1025 Rocket 3.4 19:41:09 10° N 19:45:19 41° ENE 19:48:41 15° SE
Meteor 1-13 Rocket 4.3 19:39:55 10° NNW 19:45:29 81° W 19:51:08 10° S
GEOS 3 Rocket 3.6 19:40:23 10° NE 19:45:37 67° ESE 19:50:53 10° SSW
H-2A R/B 2.6 19:46:50 10° SSE 19:50:28 60° ENE 19:54:11 10° N
Cosmos 1536 2.6 19:47:04 10° S 19:51:01 72° E 19:55:01 10° NNE
Okean 1-7 Rocket 3.5 19:47:03 10° N 19:51:35 66° E 19:56:02 10° SSE
COSMOS 2428 2.8 19:46:15 10° NNW 19:51:50 54° ENE 19:55:38 20° SE
Cosmos 2237 4.1 19:46:24 10° NNW 19:52:08 69° ENE 19:57:28 12° SSE
Meteor 1-23 Rocket 4.3 19:46:27 10° N 19:52:13 59° ENE 19:57:52 10° SSE
SL-19 R/B 4.3 19:47:25 10° SSE 19:53:03 80° ENE 19:59:05 10° NNW
Cosmos 2333 4.4 19:47:38 10° NNW 19:53:12 49° ENE 19:56:21 24° SE
Meteor 2-4 Rocket 3.5 19:49:00 10° N 19:54:34 76° E 19:59:58 10° SSE
Cosmos 1633 3.8 19:52:00 10° SSW 19:55:31 44° W 19:59:05 10° N
Cosmos 2237 Rocket 3.5 19:51:18 10° N 19:55:38 22° NE 19:55:53 22° NE
SL-08 ROCKET BODY 4.4 19:52:00 10° S 19:58:07 72° E 20:04:19 10° NNE
Cosmos 1741 Rocket 3.9 19:58:38 10° SSW 20:03:51 86° ESE 20:09:06 10° NNE
NOSS 0 Rocket 4.4 20:01:40 10° N 20:07:20 37° NE 20:08:24 34° ENE
Cosmos 2360 Rocket 3.1 20:05:29 10° NW 20:10:55 49° WSW 20:16:20 10° S
Cosmos 2219 3.1 20:06:29 10° SSW 20:12:14 83° ESE 20:18:00 10° NNE
Cosmos 2219 Rocket 2.4 20:07:28 10° NNW 20:12:50 45° ENE 20:13:35 42° E
Cosmos 1570 Rocket 4.2 20:14:22 10° NNW 20:19:34 71° WSW 20:24:15 13° S
BREEZE-M DEB (TANK) 3.4 20:21:16 10° WSW 20:23:46 39° WSW 20:23:46 39° WSW
Resurs 01 Rocket 2.7 20:22:00 10° S 20:26:13 45° W 20:30:28 10° NNW
SL-16 R/B 4.0 20:25:11 10° N 20:27:20 16° NNE 20:27:20 16° NNE
Abrixas rocket 4.0 20:27:52 10° SW 20:29:39 29° SW 20:29:39 29° SW
Spot 1 4.1 20:31:45 58° SSW 20:32:19 68° WSW 20:36:27 10° NNW
BREEZE-M DEB (TANK) 3.8 20:29:15 10° WNW 20:32:51 83° NNE 20:35:01 47° ESE
Cosmos 1610 Rocket 4.3 20:26:39 10° S 20:32:52 81° E 20:39:04 10° N
ATLAS CENTAUR R/B 3.7 20:29:12 10° SSW 20:30:46 18° SSW 20:30:46 18° SSW
ALOS 4.2 20:31:14 10° SSW 20:35:17 29° W 20:39:23 10° NW
Cosmos 468 Rocket 4.1 20:34:55 10° NNW 20:39:27 59° NNE 20:39:27 59° NNE
Helios 1A 3.5 20:40:55 53° SW 20:41:20 56° W 20:45:26 10° NNW
Cosmos 2333 Rocket 2.2 20:40:59 10° NNW 20:46:14 64° NNE 20:46:14 64° NNE
USA 229 DEB 3.8 20:45:25 10° NW 20:52:34 80° WSW 20:54:32 52° SSE
USA 229 3.8 20:45:31 10° NW 20:52:41 81° WSW 20:54:36 53° SSE
Helios 1B rocket 3.6 20:50:00 10° N 20:54:33 41° W 20:57:54 10° SW
Cosmos 1980 4.2 20:48:52 10° NNW 20:53:09 48° N 20:53:09 48° N
Envisat 3.5 20:58:42 52° NNW 20:58:42 52° NNW 21:02:31 10° NNW
NOSS 3-1 (A) 4.3 20:57:57 10° NNW 21:04:58 51° NE 21:04:58 51° NE
ATLAS 2AS CENTAUR R/B 4.4 21:04:05 10° NNW 21:10:18 24° NNE 21:10:18 24° NNE
BREEZE-M DEB (TANK) 4.2 21:14:54 10° WNW 21:17:20 37° WSW 21:17:20 37° WSW
Nadezhda 3 Rocket 4.3 21:15:11 10° NNW 21:21:13 59° W 21:21:26 59° WSW
NOSS 3-1 (C) 4.0 21:17:20 10° NNW 21:24:23 74° N 21:24:23 74° N
Cosmos 2237 Rocket 3.6 21:34:31 10° NNW 21:37:45 34° NW 21:37:45 34° NW
Cosmos 2219 Rocket 4.2 21:51:58 10° NW 21:55:22 24° W 21:55:22 24° W
